Flag for Switzerland Weather past 2 weeks in La-Chaux-de-Fonds, Neuchâtel, Switzerland

Now
66 °F

Clear.


Feels Like: 66 °F
Forecast: 65 / 82 °F
Wind: No wind

Location: Les Eplatures

Current Time: Jul 7, 2015 at 12:53:19 AM

Latest Report: Jul 7, 2015 at 12:20 AM


Visibility: 10 mi

Pressure: 30.18 "Hg (26.85 "Hg at 1000m altitude)

Humidity: 83%

Dew point: 61 °F

Location of La-Chaux-de-FondsLocation

Historic Weather in La-Chaux-de-Fonds — Graph

°F

La-Chaux-de-Fonds temperature yesterday

Maximum temperature yesterday: 81 °F (at 5:20 PM)
Minimum temperature yesterday: 61 °F (at 4:20 AM)
Average temperature yesterday: 70 °F

Past Weeks' High & Low Weather Summary

 TemperatureHumidityPressure
High88 °F (Jul 3, 3:20 PM)100% (Jun 21, 11:20 PM)30.39 "Hg (Jun 21, 11:20 PM)
Low37 °F (Jun 24, 3:50 AM)28% (Jun 30, 3:50 PM)29.86 "Hg (Jun 22, 9:20 PM)
Average65 °F66%30.22 "Hg
* Reported Jun 21 11:20 PM — Jul 6 11:20 PM, La-Chaux-de-Fonds, Weather by CustomWeather, © 2015

Note: Actual official high and low records may vary slightly from our data, if they occured in-between our weather recording intervals... More about our weather records

Advertising

La-Chaux-de-Fonds weather history for previous 24 hours

 ConditionsComfort  
Time TempWeatherWind HumidityBarometerVisibility
11:20 PM
Mon, Jul 6
66 °FSunny.No wind88%30.18 "Hg10 mi
10:50 PM68 °FSunny.No wind83%30.18 "Hg10 mi
10:20 PM68 °FSunny.No wind83%30.18 "Hg10 mi
9:50 PM70 °FSunny.No wind78%30.18 "Hg10 mi
9:20 PM70 °FSunny.1 mph78%30.18 "Hg10 mi
8:50 PM72 °FSunny.2 mph73%30.18 "Hg10 mi
8:20 PM73 °FSunny.2 mph69%30.21 "Hg10 mi
7:50 PM77 °FPassing clouds.5 mph61%30.21 "HgN/A
7:20 PM77 °FSunny.3 mph57%30.21 "Hg10 mi
6:50 PM79 °FSunny.3 mph54%30.21 "Hg10 mi
6:20 PM81 °FSunny.1 mph48%30.21 "Hg10 mi
5:50 PM79 °FSunny.5 mph51%30.21 "Hg10 mi
5:20 PM81 °FPassing clouds.5 mph51%30.21 "HgN/A
4:50 PM79 °FScattered clouds.2 mph54%30.21 "HgN/A
4:20 PM79 °FScattered clouds.2 mph54%30.24 "HgN/A
3:50 PM79 °FScattered clouds.6 mph54%30.24 "HgN/A
3:20 PM79 °FScattered clouds.3 mph65%30.24 "HgN/A
2:50 PM75 °FScattered clouds.3 mph65%30.24 "HgN/A
2:20 PM75 °FScattered clouds.5 mph65%30.24 "HgN/A
1:50 PM75 °FScattered clouds.6 mph65%30.27 "HgN/A
1:20 PM75 °FScattered clouds.5 mph69%30.27 "HgN/A
12:50 PM73 °FPartly sunny.5 mph69%30.27 "HgN/A
12:20 PM73 °FScattered clouds.2 mph65%30.27 "HgN/A
11:50 AM72 °FScattered clouds.2 mph69%30.27 "HgN/A
11:20 AM72 °FScattered clouds.3 mph69%30.27 "HgN/A
10:50 AM70 °FPartly sunny.2 mph73%30.27 "HgN/A
10:20 AM66 °FBroken clouds.2 mph78%30.30 "HgN/A
9:50 AM66 °FPartly sunny.3 mph83%30.30 "HgN/A
9:20 AM64 °FPartly sunny.3 mph88%30.30 "HgN/A
8:50 AM64 °FBroken clouds.3 mph88%30.27 "HgN/A
8:20 AM63 °FBroken clouds.2 mph94%30.27 "HgN/A
7:50 AM63 °FScattered clouds.2 mph94%30.27 "HgN/A
7:20 AM63 °FLow clouds.1 mph94%30.27 "Hg5 mi
6:50 AM61 °FPassing clouds.2 mph100%30.27 "Hg5 mi
6:20 AM61 °FMostly cloudy.1 mph100%30.27 "Hg6 mi
5:20 AM61 °FLow clouds.No wind94%30.27 "HgN/A
4:50 AM61 °FOvercast.1 mph94%30.27 "HgN/A
4:20 AM61 °FPassing clouds.2 mph100%30.27 "HgN/A
3:50 AM63 °FPassing clouds.1 mph94%30.27 "HgN/A
3:20 AM64 °FPassing clouds.1 mph88%30.27 "HgN/A
2:50 AM64 °FOvercast.2 mph88%30.27 "HgN/A
2:20 AM66 °FPassing clouds.1 mph83%30.27 "HgN/A
1:50 AM64 °FPassing clouds.1 mph94%30.27 "HgN/A
1:20 AM66 °FThundershowers. Partly cloudy.1 mph88%30.27 "HgN/A
12:50 AM68 °FThunderstorms. Partly cloudy.6 mph83%30.27 "Hg4 mi
12:20 AM70 °FPassing clouds.2 mph78%30.24 "HgN/A
Weather by CustomWeather, © 2015

See weather overviewHow to use our weather pages